Lewiston, ID

4:11 PM PDT on March 26, 2017 (GMT -0700)
Lewiston-Nez Perce County

Weather History for KLWS - August, 2013

Change the Weather History Date:

Sunday, August 25, 2013

  Actual Average Record
Temperature  
Mean Temperature 75 °F 72 °F  
Max Temperature 90 °F 86 °F 104 °F (1926)
Min Temperature 60 °F 58 °F 42 °F (1910)
Degree Days  
Heating Degree Days 0 0  
Month to date heating degree days 0 0  
Since 1 June heating degree days 44 77  
Since 1 July heating degree days 0 7  
Cooling Degree Days 10 7  
Month to date cooling degree days 318 247  
Year to date cooling degree days 926 677  
Since 1 June cooling degree days 869 645  
Growing Degree Days 25 (Base 50)    
Moisture  
Dew Point 49 °F    
Average Humidity 46    
Maximum Humidity 69    
Minimum Humidity 23    
Precipitation  
Precipitation 0.05 in 0.03 in 0.62 in (1956)
Month to date precipitation 0.50 0.54  
Year to date precipitation 6.39 8.38  
Snow  
Snow 0.00 in 0.00 in 0.00 in (1998)
Month to date snowfall 0.0 0.0  
Since 1 June snowfall 0.0 0.0  
Since 1 July snowfall 0.0 0.0  
Snow Depth 0.00 in    
Sea Level Pressure  
Sea Level Pressure 29.82 in    
Wind  
Wind Speed 5 mph (WNW)    
Max Wind Speed 28 mph    
Max Gust Speed 37 mph    
Visibility 10 miles    
Events Rain , Thunderstorm    
T = Trace of Precipitation, MM = Missing Value Source: NWS Daily Summary

Daily Weather History Graph

Daily Weather History Graph

Search for Another Location

Airport or City:

Trip Planner

Search our weather history database for the weather conditions in past years. The results will help you decide how hot, cold, wet, or windy it might be!

Date:

Astronomy

Aug. 25, 2013 Rise Set
Actual Time 5:59 AM PDT 7:39 PM PDT
Civil Twilight 5:28 AM PDT 8:10 PM PDT
Nautical Twilight 4:49 AM PDT 8:49 PM PDT
Astronomical Twilight 4:07 AM PDT 9:31 PM PDT
Moon 9:51 PM PDT (8/25) 11:27 AM PDT (8/25)
Length of Visible Light 14h 42m
Length of Day
13h 39m
Waning Gibbous, 75% of the Moon is Illuminated
Aug 25
Waning Gibbous
Aug 28
Last Quarter
Sep 5
New
Sep 12
First Quarter
Sep 19
Full

Hourly Weather History & Observations

Time (PDT) Temp. Dew Point Humidity Pressure Visibility Wind Dir Wind Speed Gust Speed Precip Events Conditions
12:56 AM 69.1 °F 46.0 °F 44% 29.81 in 10.0 mi Calm Calm - N/A   Clear
1:56 AM 66.9 °F 46.9 °F 49% 29.82 in 10.0 mi South 4.6 mph - N/A   Clear
2:56 AM 66.0 °F 46.9 °F 50% 29.84 in 10.0 mi Calm Calm - N/A   Clear
3:56 AM 64.9 °F 52.0 °F 63% 29.86 in 10.0 mi Calm Calm - 0.01 in Rain Light Rain
4:56 AM 63.0 °F 52.0 °F 67% 29.85 in 10.0 mi Calm Calm - 0.00 in   Partly Cloudy
5:56 AM 62.1 °F 50.0 °F 65% 29.88 in 10.0 mi Calm Calm - N/A   Clear
6:56 AM 61.0 °F 50.0 °F 67% 29.88 in 10.0 mi South 3.5 mph - N/A   Clear
7:56 AM 64.0 °F 50.0 °F 60% 29.89 in 10.0 mi Calm Calm - N/A   Clear
8:56 AM 69.1 °F 50.0 °F 51% 29.89 in 10.0 mi Calm Calm - N/A   Clear
9:56 AM 72.0 °F 48.9 °F 44% 29.88 in 10.0 mi Calm Calm - N/A   Clear
10:56 AM 75.9 °F 48.0 °F 37% 29.87 in 10.0 mi NW 5.8 mph - N/A   Clear
11:56 AM 79.0 °F 48.0 °F 34% 29.84 in 10.0 mi Calm Calm - N/A   Clear
12:56 PM 81.0 °F 46.9 °F 30% 29.82 in 10.0 mi NE 3.5 mph - N/A   Clear
1:56 PM 84.9 °F 48.0 °F 28% 29.79 in 10.0 mi ENE 4.6 mph - N/A   Clear
2:56 PM 86.0 °F 46.9 °F 26% 29.76 in 10.0 mi Calm Calm - N/A   Clear
3:56 PM 89.1 °F 46.9 °F 23% 29.73 in 10.0 mi NNW 4.6 mph - N/A   Clear
4:56 PM 88.0 °F 46.9 °F 24% 29.70 in 10.0 mi WSW 4.6 mph - N/A   Clear
5:56 PM 87.1 °F 46.9 °F 25% 29.71 in 10.0 mi West 6.9 mph - N/A   Clear
6:56 PM 84.0 °F 48.0 °F 28% 29.72 in 10.0 mi WNW 5.8 mph - N/A   Clear
7:56 PM 82.0 °F 46.9 °F 29% 29.75 in 10.0 mi West 11.5 mph 19.6 mph N/A Thunderstorm Thunderstorm
8:09 PM 82.4 °F 48.2 °F 30% 29.78 in 10.0 mi WNW 24.2 mph 33.4 mph N/A   Clear
8:56 PM 75.0 °F 48.9 °F 40% 29.80 in 10.0 mi WNW 20.7 mph 28.8 mph N/A   Partly Cloudy
9:56 PM 72.0 °F 48.9 °F 44% 29.84 in 10.0 mi WNW 10.4 mph - N/A   Clear
10:56 PM 70.0 °F 50.0 °F 49% 29.87 in 10.0 mi SE 8.1 mph - N/A   Mostly Cloudy
11:06 PM 68.0 °F 51.8 °F 56% 29.92 in 9.0 mi SSW 9.2 mph - 0.00 in Rain , Thunderstorm Light Rain
11:47 PM 66.2 °F 55.4 °F 68% 29.89 in 10.0 mi East 12.7 mph - 0.04 in Rain Light Rain
11:56 PM 66.9 °F 55.0 °F 66% 29.86 in 10.0 mi ENE 10.4 mph 18.4 mph 0.04 in   Scattered Clouds